Torna al catalogo

BREEZE-M DEB

AttivoHEO
NORAD 38573·DEBRIS·🇷🇺 Russia

Lanciato Mar 14, 2008 da Baikonur Cosmodrome

Loading…

Prossimi Passaggi (prossime 24 ore)

TLE

AggiornatoSource: Space-Track

Epoca: Sep 5, 2026, 10:17 UTC

1 38573U 08011U   26248.42907400  .00000079  00000-0  00000-0 0  9990
2 38573  48.5311 150.2514 6303874 106.6065  14.2334  3.02070819 12014

Traccia BREEZE-M DEB in tempo reale con AllMySat

Download on the App Store